Regional Weather Roundup
Issued by NWS

Home | Current Version | Previous Version | Text Only | Print | Product List | Glossary Off
Versions: 1 2 3 4 5 6 7 8 9 10 11 12 13 14 15 16 17 18 19 20 21 22 23 24 25 26 27 28 29 30 31 32 33 34 35 36 37 38 39 40 41 42 43 44 45 46 47 48 49 50

000
ASUS43 KIND 201559
RWRIN

WEATHER ROUNDUP FOR INDIANA
NATIONAL WEATHER SERVICE INDIANAPOLIS IN
1200 PM EDT MON APR 20 2015

NOTE: "FAIR" INDICATES FEW OR NO CLOUDS BELOW 12,000 FEET WITH NO
SIGNIFICANT WEATHER AND/OR OBSTRUCTIONS TO VISIBILITY.

* - STATION DOES NOT REPORT WEATHER SUCH AS PRECIPITATION OR FOG.

+ - STATION NOT QUALITY CONTROLLED BY THE NATIONAL WEATHER SERVICE.
    USE DATA WITH CAUTION...ESPECIALLY DEWPOINT AND RELATIVE
    HUMIDITY OBSERVATIONS.

INZ001>003-010>013-019-020-201700-
NORTHWEST INDIANA

CITY           SKY/WX    TMP DP  RH WIND       PRES   REMARKS
GARY /AIRPORT/ CLOUDY    50  39  66 W20G40    30.37R
RENSSELAER +   CLOUDY    50  45  81 W24G31    29.44R

$$

LMZ046-743>745-201700-
SOUTHERN LAKE MICHIGAN

STATION/POSITION TIME  TEMP    WIND        PRES    WAVE
                       AIR SEA DIR/SP/G            HT
                 (UTC) (F)     (DEG/KT/KT) (MB)    (FT)
BURNS HARBOR     1500   49     250/ 25/ 30  994.2R
MICHIGAN CITY    1500   47     220/ 23/ 26   N/A
4NW MICH CITY    1500   47 42  260/ 19/ 25   N/A     5

$$

INZ004-005-014>016-021>024-201700-
NORTH CENTRAL INDIANA

CITY           SKY/WX    TMP DP  RH WIND       PRES   REMARKS
ELKHART        CLOUDY    50  45  81 SW21G29   29.34R
GOSHEN         CLOUDY    50  47  89 SW21G31   29.35R
SOUTH BEND     CLOUDY    52  45  77 SW24G30   29.34R

$$

INZ006>009-017-018-025>027-201700-
NORTHEAST INDIANA

CITY           SKY/WX    TMP DP  RH WIND       PRES   REMARKS
ANGOLA *+      CLOUDY    52  48  87 W20       29.33R
FORT WAYNE     CLOUDY    54  48  80 W24G38    29.39R

$$

INZ028-029-035-036-043>045-051>053-201700-
WEST CENTRAL INDIANA

CITY           SKY/WX    TMP DP  RH WIND       PRES   REMARKS
CRAWFORDSVL +  CLOUDY    47  39  74 W17G26    29.52R
GREENCASTLE +  CLOUDY    48  39  71 W8G17     29.55R
LAFAYETTE      CLOUDY    49  43  80 W15G29    29.48R
TERRE HAUTE    CLOUDY    53  44  71 W12G23    29.57R

$$

INZ030>032-037>040-046>048-054>057-064-065-201700-
CENTRAL INDIANA

CITY           SKY/WX    TMP DP  RH WIND       PRES   REMARKS
ANDERSON       CLOUDY    50  46  87 SW17G35   29.50R
COLUMBUS       CLOUDY    52  48  87 SW21      29.56R FOG
INDIANAPOLIS   CLOUDY    50  44  80 W22G28    29.52R
-EAGLE CREEK   CLOUDY    49  44  83 W12G26    29.52R
KOKOMO *+      PTSUNNY   52  45  76 W24G32    29.46R
MT COMFORT *+  CLOUDY    52  48  87 W26G32    29.52R
SHELBYVILLE    LGT RAIN  53  49  86 W22G28    29.53R FOG

$$

INZ033-034-041-042-049-050-058-059-201700-
EAST CENTRAL INDIANA

CITY           SKY/WX    TMP DP  RH WIND       PRES   REMARKS
MUNCIE         CLOUDY    53  47  79 W14G25    29.46R

$$

INZ060-061-067>069-081>083-085>088-201700-
SOUTHWEST INDIANA

CITY           SKY/WX    TMP DP  RH WIND       PRES   REMARKS
EVANSVILLE     CLOUDY    54  46  74 W9        29.67R
HUNTINGBURG *+ CLOUDY    54  45  71 W16       29.65R

$$

INZ062-063-066-070>080-084-089>092-201700-
SOUTH CENTRAL AND SOUTHEAST INDIANA

CITY           SKY/WX    TMP DP  RH WIND       PRES   REMARKS
BLOOMINGTON    CLOUDY    51  45  79 W9        29.58R
MADISON *+     CLOUDY    55  48  76 W16G23    29.60R

$$




USA.gov is the U.S. government's official web portal to all federal, state and local government web resources and services.